GFSNW_925_spd_072.txt.gz
Wind_Speed
44 43 41 40 38 34 32 11 7 20 36 11 9 23 33 32 29 29 29 25 29 19 22 10 17 15 14 4 21 24 24 9 13 18 16 17 17 16 17 8 10 7 6 9
46 45 44 42 41 38 29 5 3 20 33 14 18 20 31 28 27 31 27 28 28 15 17 19 14 15 7 3 16 22 18 17 11 16 17 16 17 20 17 15 12 13 7 4
48 47 46 45 44 43 34 5 6 5 13 14 23 22 24 27 29 30 31 25 21 25 17 14 8 12 9 5 9 9 9 17 15 11 12 12 16 19 18 16 8 9 12 12
49 49 49 48 47 48 40 7 8 12 14 20 23 21 17 31 29 31 30 27 26 16 19 18 16 15 2 7 6 7 4 14 19 19 19 17 18 20 19 20 16 14 13 16
49 51 51 51 51 51 36 6 8 14 13 20 23 24 27 31 27 26 34 30 25 15 22 20 10 16 13 7 1 7 8 13 14 20 20 22 16 20 21 21 20 19 15 17
48 51 52 55 56 56 10 21 23 10 14 16 20 27 28 29 27 25 30 30 26 16 14 18 3 7 0 2 9 8 12 8 13 16 19 17 18 16 13 13 14 13 13 10
42 43 50 57 59 64 24 17 12 12 11 20 20 24 30 32 28 25 25 26 28 22 14 6 1 16 4 10 7 4 8 11 10 9 3 23 10 12 15 13 12 13 14 11
46 45 47 49 61 65 47 23 18 12 11 17 24 25 28 25 19 22 24 24 26 18 13 3 4 4 5 8 13 7 9 4 3 7 14 12 19 10 9 9 14 12 14 13
48 50 49 49 53 62 57 29 37 14 15 17 21 16 20 17 19 19 22 23 19 14 2 5 5 5 6 6 8 13 13 12 4 6 11 16 9 12 4 7 12 13 12 9
51 53 51 52 53 51 56 25 41 17 14 14 14 13 15 17 17 14 17 20 17 14 13 5 3 7 9 8 7 6 6 6 13 7 5 5 8 12 7 14 5 12 12 11
52 53 52 51 50 52 48 33 41 25 9 8 17 19 13 12 17 14 11 12 14 10 13 9 6 7 11 12 9 5 6 10 6 6 6 15 5 4 19 8 2 7 6 5
51 51 50 48 46 49 47 11 41 37 10 4 9 16 14 23 21 11 11 19 11 6 10 9 6 4 6 9 9 10 5 9 4 5 3 2 6 5 5 5 2 4 6 5
44 48 46 46 46 45 41 16 38 30 5 1 3 12 15 16 22 27 10 11 14 16 11 4 4 5 5 5 10 10 16 15 2 6 7 11 5 3 3 5 5 4 4 4
41 49 44 47 47 48 43 21 32 17 4 3 6 8 8 21 15 16 12 11 8 11 11 11 4 4 9 8 6 10 6 12 14 13 15 7 15 11 6 5 6 5 5 3
40 46 45 45 48 47 36 23 35 25 2 4 3 6 14 12 14 14 16 12 8 2 4 5 5 6 5 5 8 9 10 9 5 2 5 4 3 5 5 4 6 5 3 4
38 45 43 45 43 47 31 4 27 30 5 3 5 5 7 14 18 11 12 11 5 5 4 6 5 11 7 2 5 10 12 10 10 4 2 4 4 2 6 5 7 8 5 2
42 44 45 43 46 38 5 5 19 25 11 2 2 3 2 9 9 8 4 7 2 4 4 3 9 9 7 2 7 10 11 12 13 7 7 2 4 3 4 3 6 6 5 5
50 53 50 36 33 27 14 27 34 23 6 1 2 1 2 7 4 4 3 5 3 6 2 6 5 5 4 5 12 14 15 12 3 7 5 4 6 3 5 4 2 5 6 7
54 47 41 33 17 5 7 23 17 3 3 3 2 3 2 6 3 3 4 3 1 3 7 7 6 4 5 5 10 10 11 12 11 9 7 6 3 6 5 5 6 8 7 8
33 21 7 4 5 31 22 4 2 2 2 1 2 2 2 3 1 3 5 4 5 5 4 4 2 4 7 15 10 8 8 11 10 10 6 6 7 7 7 9 8 8 9 12
11 4 4 27 26 2 1 3 3 4 4 5 3 5 4 3 1 3 4 4 3 3 4 6 3 3 4 11 12 9 9 10 11 12 11 8 11 10 12 15 16 15 18 17
9 16 12 6 2 3 3 3 1 3 4 5 5 3 2 3 4 6 3 3 2 4 3 3 3 2 6 8 12 13 12 14 16 17 17 18 17 16 15 14 14 19 22 23
12 3 4 1 1 3 5 6 3 3 4 4 3 3 1 1 4 3 3 3 2 5 2 3 3 3 5 6 8 12 14 15 15 16 19 22 21 23 22 16 22 25 25 24
4 3 4 2 3 5 3 4 3 2 2 8 5 4 3 3 2 2 2 1 4 3 3 3 3 5 6 8 8 11 11 12 14 15 15 18 18 21 26 24 24 26 24 24
5 4 5 6 3 4 5 5 2 5 5 4 2 1 1 1 0 1 3 2 4 5 3 2 3 7 9 10 9 11 12 11 13 13 15 17 24 24 26 27 28 28 28 27
4 7 4 7 5 7 6 7 5 6 6 3 2 1 2 1 2 3 6 3 5 3 3 4 6 9 11 11 12 12 12 14 15 20 22 24 25 25 28 29 28 27 26 24
4 4 8 7 4 5 4 5 6 5 3 2 2 4 3 2 4 4 5 4 5 6 6 7 10 10 12 12 14 13 18 19 22 23 24 25 26 28 28 22 25 26 25 26

GFSNW_925_spd_075.txt.gz
Wind_Speed
40 40 39 37 35 31 25 8 5 23 35 10 6 19 21 11 17 15 18 15 22 22 17 16 18 23 8 9 5 23 11 4 10 20 15 21 17 9 9 5 5 4 5 5
43 41 40 37 35 32 20 3 3 23 30 14 15 13 21 25 20 20 12 12 14 21 21 8 13 10 16 5 5 7 6 4 9 12 12 13 17 7 8 6 4 6 5 4
42 41 40 39 37 35 31 4 5 5 12 7 15 16 20 22 19 25 23 21 18 17 20 7 10 18 8 7 7 10 9 5 15 14 11 3 7 9 9 7 5 4 6 4
44 44 42 41 39 38 31 6 5 7 9 18 15 20 10 24 20 20 8 15 21 20 13 10 9 7 18 13 8 7 7 16 19 18 18 11 9 10 12 11 11 7 6 8
44 43 43 43 41 40 30 6 5 8 6 18 24 21 17 20 21 20 21 23 21 13 16 9 12 17 10 11 9 7 5 5 4 15 13 14 14 11 15 13 10 7 7 11
44 44 44 45 44 44 19 20 12 3 13 15 20 23 27 20 19 16 24 19 20 19 20 7 10 3 11 10 10 5 8 5 4 13 12 7 10 11 8 9 13 9 10 9
42 44 46 47 49 53 32 17 9 9 7 19 18 21 26 23 21 21 19 18 18 17 9 2 2 2 13 16 21 14 4 6 4 4 2 14 4 4 5 9 11 6 1 2
41 42 43 45 53 55 45 19 13 9 16 10 19 17 20 22 23 26 22 18 14 6 8 5 4 5 2 9 14 14 3 3 2 5 10 4 11 5 4 5 8 6 4 4
43 44 46 46 47 55 54 39 29 11 12 19 15 19 17 13 18 19 20 17 5 2 6 4 6 5 4 4 5 9 7 3 4 2 4 9 3 9 6 3 6 4 2 5
47 47 47 49 48 49 53 29 33 15 13 10 18 15 15 13 13 10 10 7 8 7 4 6 5 9 10 5 5 4 3 3 4 1 2 6 5 13 2 6 7 6 2 4
48 50 50 50 49 48 46 32 42 22 8 5 21 9 8 7 8 8 5 7 7 2 5 4 4 4 8 6 6 4 5 6 6 4 4 4 10 3 8 5 6 5 0 2
45 47 51 50 49 48 46 8 39 39 3 6 8 10 25 13 6 2 4 7 7 5 4 4 3 3 2 7 5 3 6 5 4 4 4 8 6 4 1 3 3 4 3 5
43 46 49 52 50 47 43 17 28 28 4 2 3 6 22 12 17 17 1 4 5 4 4 4 4 4 5 2 6 4 3 4 4 3 5 12 6 5 5 8 1 4 6 4
39 42 51 55 50 46 42 20 28 15 3 3 5 12 16 20 16 13 8 8 10 1 5 4 3 2 6 5 5 5 5 9 7 4 7 14 8 4 6 6 9 5 6 2
31 32 47 48 47 48 36 26 28 22 4 3 5 5 10 20 20 12 5 4 1 2 2 1 1 2 4 3 3 5 5 7 6 6 11 7 3 3 5 9 3 8 3 2
36 46 45 47 47 45 29 4 22 27 5 2 3 2 6 12 12 7 2 1 2 2 3 1 3 1 5 3 5 6 8 4 6 5 2 4 8 7 4 4 6 3 7 5
45 43 47 50 51 36 3 5 22 28 6 3 2 3 1 6 4 2 3 2 1 3 3 3 1 2 6 11 4 5 7 6 7 4 7 4 2 5 6 7 6 6 7 9
43 45 47 48 40 19 2 16 48 26 3 3 3 1 3 7 2 2 2 2 2 1 3 2 2 5 2 5 6 7 8 5 5 5 6 6 8 8 8 6 8 12 12 13
49 48 44 28 8 3 10 38 36 6 2 3 2 4 3 4 2 3 1 2 2 2 3 3 4 3 4 5 6 7 10 13 7 8 8 8 11 9 9 11 9 11 12 15
48 14 4 3 6 37 21 7 3 3 1 2 2 3 3 3 2 2 3 2 3 4 5 4 4 5 3 10 10 8 8 9 8 11 7 11 9 11 12 14 14 14 14 15
4 3 4 16 9 5 3 3 2 1 2 2 2 2 5 1 3 2 2 3 3 3 3 7 2 4 3 8 11 12 14 15 14 13 12 12 15 14 14 14 14 14 17 16
11 16 8 3 3 3 5 2 1 2 4 2 4 3 3 3 2 2 3 3 2 4 7 2 3 2 6 7 11 13 13 15 18 17 17 16 18 16 17 15 15 19 21 25
6 3 4 2 3 4 4 5 1 1 2 3 3 3 3 2 2 2 3 4 3 2 3 2 3 4 5 6 7 11 12 14 16 16 18 22 21 24 23 17 24 26 26 25
4 4 5 4 4 4 4 3 2 2 1 4 4 3 3 2 3 2 4 1 2 4 5 3 2 5 6 7 7 10 12 14 16 16 17 18 19 19 25 27 27 29 26 25
4 5 5 5 4 4 4 4 3 5 4 1 0 1 3 2 2 3 2 4 4 5 3 2 4 7 7 8 9 11 12 13 14 14 16 18 24 24 24 28 29 31 30 31
4 7 4 4 3 6 5 6 5 4 5 3 1 1 2 3 3 5 6 4 4 3 2 4 6 8 9 11 11 12 13 14 15 21 23 25 26 25 27 30 30 29 28 28
5 3 5 4 2 4 4 5 6 5 3 2 2 4 4 3 3 4 4 3 3 4 5 6 9 11 12 12 13 12 19 19 24 26 26 27 28 30 30 23 26 28 29 29

GFSNW_925_spd_078.txt.gz
Wind_Speed
34 34 33 30 27 23 23 8 6 21 34 8 6 16 12 9 11 6 11 9 11 13 7 7 7 13 10 18 21 13 15 10 12 15 6 2 11 13 10 5 5 3 4 8
37 37 36 33 29 27 14 4 4 20 26 11 15 10 17 18 16 11 4 5 9 1 6 6 6 7 3 16 15 8 7 10 4 16 11 6 5 7 11 7 5 9 6 5
41 40 37 35 32 31 31 3 5 5 9 6 19 19 11 18 13 26 21 16 15 12 11 9 8 4 7 15 18 26 16 7 21 16 6 3 2 11 17 14 7 6 6 6
43 42 39 37 35 34 31 5 5 5 9 15 14 19 10 21 16 12 9 9 26 19 6 4 17 5 5 10 15 10 4 6 4 12 7 5 10 16 16 16 9 12 9 10
42 42 41 39 38 35 27 6 5 5 1 14 22 21 19 20 16 20 23 21 10 10 19 15 13 10 1 6 11 12 11 4 5 4 9 10 16 21 14 11 8 8 7 7
43 43 42 40 39 37 15 15 9 4 11 11 16 19 24 18 20 15 25 20 10 16 17 17 12 6 4 6 2 9 7 5 5 5 10 13 9 16 19 6 6 9 9 9
41 41 42 43 42 46 30 13 9 6 8 16 17 19 22 26 22 21 11 10 18 19 9 11 8 4 3 10 11 8 8 12 2 3 6 8 8 12 19 11 11 8 5 6
36 39 40 42 45 47 39 21 13 7 11 9 18 21 16 21 20 25 23 21 18 6 5 5 4 4 4 9 12 12 11 9 4 5 7 3 8 12 5 7 9 7 9 7
35 36 37 39 43 49 48 38 21 9 7 17 12 13 17 12 14 16 21 22 15 4 3 4 7 5 4 4 6 1 5 10 5 2 7 8 4 15 16 1 6 5 8 8
38 38 39 39 40 43 45 25 34 12 8 7 16 9 11 12 9 3 4 7 11 7 3 6 4 6 8 4 4 5 4 4 3 1 1 6 8 7 7 8 7 5 3 5
42 42 42 41 42 43 43 31 38 24 5 6 16 14 13 10 9 6 4 2 2 2 5 4 4 4 7 5 5 6 5 4 2 3 1 6 4 8 6 6 4 4 1 2
46 46 46 45 45 44 44 13 27 39 6 2 21 29 29 22 14 5 5 4 3 5 3 1 2 2 2 5 5 5 5 7 3 5 6 5 4 2 6 5 2 4 5 2
39 42 47 49 48 45 45 25 16 31 8 3 6 12 22 28 23 14 4 2 1 2 3 4 3 4 4 2 8 4 3 2 4 4 8 11 6 4 3 3 4 3 3 3
40 41 42 47 50 45 43 22 29 21 3 4 5 16 22 37 16 20 14 6 3 1 2 2 3 3 4 4 7 4 5 6 4 3 6 5 7 7 7 7 4 2 2 3
42 42 41 39 52 46 38 25 33 18 3 3 4 9 17 32 23 15 11 6 3 2 0 1 3 2 1 1 3 5 5 6 4 5 9 6 6 8 6 7 5 2 2 3
40 41 43 42 47 46 31 4 22 30 10 1 3 2 8 19 24 15 5 4 3 3 2 3 3 3 2 2 3 6 7 6 8 10 6 11 2 2 1 6 4 7 7 7
34 44 44 46 48 41 8 6 12 40 25 1 3 3 2 11 9 4 2 1 2 3 3 4 3 2 3 2 4 5 17 14 12 8 5 1 4 5 2 7 9 12 13 14
38 43 43 51 44 29 4 2 31 42 4 3 3 2 3 3 3 2 1 2 0 1 3 1 3 1 2 5 3 4 14 23 17 9 3 3 8 8 7 8 10 15 13 12
50 55 47 32 12 3 6 34 37 19 3 3 3 4 3 2 1 3 2 2 2 1 2 3 4 4 6 4 0 7 14 15 13 5 8 8 10 10 9 13 12 16 13 14
45 23 4 3 5 31 20 7 4 4 2 2 2 2 3 3 1 1 3 2 2 2 5 3 3 4 4 5 7 9 10 14 5 9 6 9 8 9 12 14 12 14 13 15
6 3 3 13 22 6 2 3 3 3 2 1 2 3 4 1 3 3 1 3 2 3 4 6 3 3 3 3 7 12 10 8 12 9 12 12 11 13 14 13 15 15 17 16
8 13 8 5 2 2 4 2 2 3 4 1 4 3 3 1 2 3 2 3 3 5 4 3 3 1 4 6 7 11 7 9 15 15 18 15 14 13 16 15 15 19 25 25
3 4 4 4 3 7 5 2 2 3 1 3 2 3 3 2 2 2 2 5 6 3 4 1 3 3 4 3 6 10 5 12 15 18 19 21 19 21 22 16 23 26 27 27
4 4 6 4 4 4 4 4 2 2 2 3 3 4 3 2 2 2 3 3 2 5 2 3 2 2 3 4 7 11 7 13 15 17 17 18 17 19 24 25 25 27 26 25
5 5 5 5 2 3 3 3 2 5 3 2 3 3 2 2 2 3 2 2 3 4 2 2 2 4 6 8 8 10 12 13 14 14 16 17 23 23 25 28 30 31 31 29
4 7 4 4 3 6 5 7 3 4 4 1 1 2 3 2 2 4 5 2 3 2 2 3 5 8 9 11 12 12 12 13 14 19 22 25 25 25 27 30 30 29 29 28
5 4 3 3 2 3 3 4 5 5 2 2 2 4 3 2 3 3 4 3 2 3 5 6 8 10 11 12 13 13 17 17 21 24 26 27 28 29 29 22 26 30 29 30

GFSNW_925_spd_081.txt.gz
Wind_Speed
29 27 25 24 22 21 19 7 7 17 29 8 5 15 6 6 5 2 6 4 4 6 6 5 4 4 5 8 5 5 4 5 12 24 9 3 10 12 10 5 4 3 4 9
30 29 27 26 26 25 12 5 6 21 24 11 14 10 18 10 8 4 3 4 8 3 4 5 9 7 4 4 5 6 10 4 4 7 9 17 5 4 4 2 4 9 7 6
33 32 31 30 30 30 27 2 5 5 8 5 18 19 17 12 11 17 11 4 5 4 3 6 7 6 5 6 6 6 6 5 12 14 6 5 5 6 1 7 6 5 12 5
36 35 35 34 34 34 27 6 5 5 9 10 13 16 9 17 12 12 11 4 21 17 10 11 17 16 12 11 2 2 6 7 14 18 17 5 5 5 3 2 9 10 8 13
41 40 39 38 38 36 30 6 4 5 1 13 20 18 18 22 18 13 10 12 8 11 13 16 6 6 9 5 2 2 3 5 15 6 13 17 15 9 9 4 9 12 8 14
43 43 43 43 42 40 15 16 8 3 9 8 14 18 23 19 17 10 20 16 15 13 23 17 19 16 13 7 4 2 0 5 6 5 5 5 3 16 13 8 8 9 10 10
43 43 44 44 45 47 31 9 6 4 8 14 15 16 22 21 16 22 10 19 15 22 8 7 10 13 17 15 11 11 8 3 3 4 1 4 8 9 15 18 18 17 12 7
38 40 41 43 45 48 40 20 10 6 10 9 16 20 14 16 17 20 17 19 14 2 4 3 5 3 3 10 13 14 10 5 4 3 3 4 4 5 9 12 16 23 12 8
29 31 37 41 42 46 45 31 19 8 5 16 11 12 18 10 13 16 19 21 15 3 6 4 5 4 5 4 3 9 13 9 4 1 3 8 6 10 6 3 11 9 6 8
31 30 31 33 40 43 43 22 34 9 5 5 14 10 13 11 9 3 4 9 7 12 5 3 4 4 3 4 3 3 3 3 6 7 6 6 6 7 1 6 7 7 3 9
34 34 33 33 35 40 45 30 34 23 2 7 13 13 10 9 12 6 2 3 2 5 6 5 4 3 6 5 4 4 5 5 2 2 4 5 1 4 1 1 9 3 3 7
36 36 36 35 36 38 42 15 36 37 6 1 23 28 28 32 20 10 5 3 3 5 4 3 2 3 1 5 6 4 6 5 4 5 3 23 7 4 5 4 3 7 4 3
42 41 41 40 39 39 42 21 21 24 9 5 6 13 23 30 29 23 6 2 4 3 4 3 3 3 4 4 4 6 4 5 4 4 9 20 21 5 3 4 5 9 8 4
38 39 41 44 43 43 42 33 21 24 2 2 3 23 21 33 24 25 19 7 3 2 2 2 2 2 4 4 5 5 5 4 6 4 5 9 10 7 8 8 8 9 9 4
39 38 38 42 45 43 40 33 25 23 4 3 3 12 29 29 29 24 16 10 4 3 1 2 2 2 2 2 1 4 4 4 3 5 6 4 7 7 4 6 7 8 5 3
41 42 39 40 46 47 27 5 24 33 23 3 3 2 15 20 26 15 6 4 4 3 3 3 1 2 2 1 6 7 6 4 2 2 8 13 14 5 1 6 6 5 6 5
42 43 42 38 40 43 9 6 13 40 26 2 1 1 4 23 8 8 4 2 2 2 3 3 4 3 3 3 5 4 4 4 5 8 3 8 5 4 1 11 14 11 12 15
46 44 40 38 45 27 5 3 34 44 8 3 3 3 3 5 3 5 2 4 2 0 2 1 3 1 2 4 4 6 4 4 7 5 7 11 3 6 8 9 9 14 11 12
45 46 46 42 11 4 5 24 36 21 4 3 0 3 3 3 2 3 2 2 3 1 2 3 4 4 6 6 8 6 4 3 6 10 9 5 7 8 8 9 11 13 12 13
55 37 5 3 6 45 38 7 3 2 0 1 1 0 3 3 2 2 3 1 2 2 4 0 2 5 6 6 5 4 4 2 2 0 4 5 6 8 7 11 10 12 12 14
7 3 3 25 27 7 2 3 2 3 4 3 3 3 5 2 3 3 0 3 3 3 4 6 3 3 3 6 5 5 3 4 3 0 3 9 12 13 13 13 13 13 15 15
13 17 15 7 4 3 3 2 2 3 4 1 4 2 3 2 3 3 1 3 2 5 3 3 3 2 5 5 5 5 4 5 11 10 12 15 16 13 15 15 15 18 23 25
8 4 3 1 3 5 3 3 2 3 2 3 3 3 2 2 3 3 2 4 4 2 4 2 2 3 5 5 4 5 8 11 14 14 15 19 18 22 21 17 23 26 25 26
4 4 6 4 5 4 2 3 2 2 2 4 5 3 2 2 2 2 4 4 2 4 3 1 2 5 4 5 6 6 9 12 14 11 15 14 19 18 26 25 25 28 25 25
5 5 5 5 2 3 4 3 2 5 3 1 3 3 2 2 3 0 1 1 2 2 2 2 3 6 6 6 7 9 9 9 12 10 14 13 22 22 26 29 29 31 32 29
4 7 4 4 3 6 5 6 4 5 4 2 2 3 3 3 2 3 3 2 1 1 1 2 4 6 7 8 9 8 9 11 12 16 19 23 24 25 29 33 31 30 30 27
5 4 5 3 2 3 4 4 5 5 3 2 2 4 3 2 3 3 3 2 2 3 4 4 6 7 8 8 10 10 13 13 18 22 24 26 28 32 33 21 28 31 30 30

GFSNW_925_spd_084.txt.gz
Wind_Speed
25 23 22 22 21 18 15 6 4 10 25 7 3 11 4 2 5 5 4 1 2 2 3 3 1 4 4 5 3 4 3 3 4 11 16 12 4 7 12 10 4 3 4 10
24 25 25 24 22 21 8 3 3 14 17 9 12 4 11 8 4 3 2 3 5 2 2 2 5 6 6 4 5 5 5 2 5 7 5 3 5 5 5 2 2 8 7 5
27 27 26 25 25 24 20 2 4 4 6 6 12 16 13 12 6 14 6 2 2 2 1 3 2 4 5 8 9 5 3 4 6 5 9 15 12 8 14 8 5 7 14 4
31 31 30 29 29 27 22 6 5 5 5 9 14 12 5 18 11 8 9 5 11 6 4 4 9 10 13 13 10 5 3 4 3 11 14 20 26 22 10 15 12 10 5 10
35 35 33 32 31 31 25 6 5 4 3 3 14 16 15 15 15 10 7 8 7 11 10 10 4 3 3 4 3 2 2 3 3 7 13 18 20 21 14 14 5 6 5 6
40 39 39 37 36 34 17 20 7 5 8 12 11 16 18 17 17 9 18 14 12 12 15 11 12 13 10 7 7 1 2 3 2 9 10 20 10 24 21 8 6 6 7 7
43 43 42 42 43 45 32 17 9 7 9 15 18 16 20 20 18 21 8 13 15 17 5 5 5 10 15 14 13 9 7 3 2 5 7 8 8 5 14 14 12 9 5 5
42 43 44 44 46 47 41 33 10 5 11 10 11 15 13 17 18 19 17 17 13 7 2 3 4 2 2 9 16 16 16 7 3 3 4 8 15 6 5 7 18 14 13 7
31 38 41 44 47 49 47 38 34 5 6 17 13 13 16 10 11 11 14 13 10 5 2 2 3 3 4 3 3 14 13 11 7 3 3 5 6 9 15 0 10 6 4 11
26 25 25 34 43 46 47 24 39 13 5 5 14 13 13 12 8 3 4 8 10 13 4 4 4 5 4 3 2 3 5 6 14 8 5 6 4 9 19 6 5 6 4 8
28 30 30 31 30 39 44 34 33 26 2 7 10 14 9 10 13 5 3 5 2 5 7 4 4 3 5 4 4 3 6 5 4 4 5 7 3 11 6 5 7 7 5 7
31 31 32 32 33 32 39 14 32 38 7 2 21 25 28 26 20 10 4 3 3 4 3 3 2 3 0 5 3 4 5 6 3 6 4 4 3 6 18 11 10 8 6 9
33 34 34 34 34 34 34 18 27 26 7 3 7 7 21 21 25 28 8 4 6 3 4 2 2 3 4 4 5 6 4 3 4 1 6 12 10 8 12 12 14 6 4 4
37 37 37 36 34 34 34 27 26 24 3 3 2 26 10 35 26 27 28 9 5 4 2 4 2 2 3 4 5 6 7 3 5 6 12 16 14 7 8 8 11 7 4 4
38 39 41 39 37 35 32 27 22 18 3 3 3 3 31 29 29 25 23 15 4 2 1 2 3 3 2 2 2 3 5 7 4 6 9 3 9 8 12 8 7 4 1 3
34 36 35 40 38 36 27 4 25 31 12 1 1 4 5 26 26 22 8 10 6 4 3 2 3 4 3 3 3 5 6 4 4 4 4 5 14 11 7 3 4 7 10 9
28 34 36 34 37 40 8 4 12 35 20 0 1 2 2 19 9 11 5 5 3 3 3 3 3 3 4 2 4 5 5 6 6 7 4 6 5 5 1 8 5 7 14 16
32 34 35 36 39 30 7 3 26 40 9 1 2 3 1 7 3 5 3 3 3 3 3 3 3 0 2 4 6 11 16 15 7 7 6 7 9 3 3 5 8 10 13 14
37 39 37 33 8 3 11 20 38 14 4 3 3 3 3 4 2 3 1 4 3 3 3 3 4 3 6 8 11 10 10 8 7 3 6 8 6 6 6 7 7 10 11 13
46 35 5 3 9 44 43 5 2 1 0 1 2 2 2 3 2 2 3 3 3 3 5 2 3 4 3 1 5 6 6 3 3 4 5 4 4 5 6 10 10 10 12 13
8 3 3 39 32 8 3 3 3 3 4 4 2 2 3 1 3 3 3 3 3 3 3 6 3 4 1 6 6 7 7 5 5 6 7 7 7 11 12 13 12 13 13 14
12 18 19 8 4 2 3 3 2 2 4 3 4 3 3 2 2 2 2 3 2 4 3 3 3 2 5 6 5 6 6 6 6 5 6 8 10 12 13 13 13 17 22 22
9 6 4 3 4 4 2 4 2 2 1 3 3 4 2 2 2 2 2 4 5 4 3 3 2 5 6 7 4 5 5 6 8 9 10 15 14 19 19 16 21 26 27 25
4 4 6 3 4 3 3 3 3 3 3 3 4 3 2 2 2 2 3 3 2 3 3 1 3 6 5 5 6 5 6 7 9 9 11 14 15 15 22 24 26 30 26 28
4 5 5 4 2 3 3 3 2 4 3 0 2 3 2 2 3 2 1 1 1 1 2 2 2 5 5 6 6 6 7 7 8 8 11 13 18 17 19 24 30 34 33 31
4 7 4 4 3 6 5 6 3 5 5 3 1 3 3 3 2 4 3 2 1 2 2 2 3 6 6 6 7 8 8 9 9 14 17 18 20 21 23 23 29 32 33 31
5 4 5 4 2 2 4 3 4 5 3 3 3 5 3 2 3 3 3 2 3 2 3 4 6 5 6 6 8 9 11 11 16 20 22 22 25 28 27 16 27 31 31 33

GFSNW_925_spd_087.txt.gz
Wind_Speed
22 19 17 16 14 15 9 3 4 4 24 6 3 7 4 3 3 2 2 1 2 2 1 1 1 3 2 5 4 4 6 1 2 4 10 8 5 3 11 10 8 3 5 12
22 20 20 18 18 15 9 2 3 5 14 7 9 6 9 6 3 2 3 2 1 1 3 3 3 3 3 10 5 5 6 1 3 5 0 3 3 6 7 4 5 18 12 6
23 22 21 22 19 19 18 2 3 4 6 6 9 12 9 8 7 14 6 3 1 1 3 3 1 2 3 7 9 6 1 3 7 6 5 3 7 14 17 10 10 12 17 16
24 22 22 22 21 20 18 5 5 4 5 10 14 12 6 17 10 7 6 3 11 4 4 3 3 3 9 9 8 4 5 5 6 11 10 14 13 14 17 20 18 14 10 16
26 25 26 26 25 24 18 4 3 2 4 6 15 14 13 15 15 8 8 9 7 14 11 10 8 4 1 4 6 4 4 1 2 6 13 15 18 20 20 22 20 21 18 19
31 31 31 30 29 30 13 11 2 2 3 10 5 12 17 19 15 11 14 13 11 10 10 8 7 8 10 10 9 5 4 2 1 4 1 8 12 12 12 19 19 17 17 11
38 36 36 35 36 37 25 11 7 4 5 10 9 12 12 18 18 17 11 16 13 5 6 9 8 12 15 13 15 12 5 4 2 5 6 9 8 5 11 14 22 18 15 7
40 40 40 40 40 40 32 21 12 6 10 8 13 14 14 13 15 16 16 9 2 5 3 3 4 3 4 9 17 18 16 8 4 4 7 15 17 4 1 4 18 13 18 18
36 38 41 46 44 41 41 33 29 9 8 16 16 13 13 10 10 12 13 5 5 2 3 3 3 3 3 2 3 12 13 13 8 5 7 6 4 4 1 1 10 19 21 14
31 33 35 39 43 46 44 22 40 18 10 5 12 13 13 9 9 5 5 6 6 8 4 8 4 3 2 3 2 5 5 6 15 11 9 10 5 6 3 3 5 23 20 21
23 23 23 24 37 46 44 34 34 32 9 14 8 12 13 10 11 6 4 4 6 4 7 5 4 5 6 5 6 4 8 7 5 7 6 9 4 3 2 2 8 17 21 18
24 24 25 24 21 32 46 18 37 37 8 4 30 31 22 19 17 9 7 4 3 5 4 4 3 3 2 6 5 4 6 7 4 7 3 5 5 3 7 7 4 15 16 18
30 31 29 28 27 26 29 28 25 32 9 3 5 8 23 19 31 32 8 4 6 5 1 2 1 4 5 5 7 5 4 3 4 1 3 6 7 10 10 8 11 16 16 12
30 30 29 28 28 29 31 22 29 25 3 5 4 23 21 27 22 28 29 8 9 6 3 3 3 3 1 3 4 5 7 3 5 6 10 7 6 2 6 14 16 14 13 9
31 30 30 29 29 29 29 28 20 30 6 3 3 2 17 30 36 29 31 20 10 5 4 3 3 2 2 2 1 3 4 6 4 8 9 6 13 3 6 12 11 11 11 4
33 31 31 30 29 28 24 4 26 22 5 1 2 3 3 22 20 26 14 13 9 6 2 2 3 3 3 3 3 5 9 9 7 10 5 7 9 7 5 5 4 6 8 4
34 35 35 34 32 30 6 3 11 38 14 1 2 2 2 9 11 7 7 11 4 5 2 3 4 3 4 2 4 5 7 10 10 11 5 8 9 3 7 1 6 10 12 11
31 30 31 32 34 26 7 4 17 38 6 2 2 2 3 6 3 4 5 5 5 4 3 2 3 1 3 5 7 13 18 15 14 17 8 12 6 7 2 3 7 8 10 7
30 30 32 27 12 3 11 12 36 14 5 5 3 3 2 4 2 3 3 3 3 3 3 4 3 4 6 8 11 9 6 4 9 8 3 7 6 8 3 3 6 10 10 10
32 26 4 3 11 37 38 10 3 2 1 1 3 2 3 2 1 2 3 3 3 3 5 4 4 4 3 4 3 3 6 8 9 8 7 4 4 1 2 4 5 8 11 13
7 3 3 21 36 8 3 3 3 3 4 4 3 4 4 1 3 3 2 2 4 3 3 5 2 3 1 7 6 7 8 7 5 5 8 9 11 7 7 9 10 12 12 15
12 19 17 6 4 2 4 4 4 4 5 4 6 4 3 2 2 2 3 2 3 4 4 2 3 3 7 9 10 9 8 8 6 5 4 5 6 7 11 12 12 16 19 23
13 7 5 3 4 4 4 5 3 2 3 4 4 4 2 1 2 2 2 4 3 6 3 3 3 6 7 8 8 7 7 5 4 5 6 9 10 13 16 12 19 23 22 23
4 3 5 3 4 4 3 2 2 2 2 4 4 3 2 2 2 1 3 2 3 3 4 2 3 8 8 7 6 5 6 7 7 6 7 10 11 12 16 18 20 23 22 26
5 5 5 4 2 3 4 3 1 3 3 1 3 3 2 2 3 1 1 2 2 3 2 2 5 7 7 6 6 5 6 6 6 6 9 10 16 17 19 20 22 23 26 26
4 7 4 4 3 5 5 5 3 4 4 1 1 3 3 3 2 3 4 2 2 2 2 4 4 5 6 6 6 6 6 7 8 13 15 17 18 20 23 27 26 25 25 28
5 4 4 3 2 2 3 4 5 4 2 3 2 5 3 1 3 3 4 2 2 3 4 4 6 6 5 5 6 6 9 11 14 17 20 22 25 28 28 18 26 29 27 29